When you browse on this site, cookies collect data to enhance your experience and personalize the content and advertising you see.
Visit our Privacy Policy to learn more. By continuing to use the site, you agree to this use of cookies and data.
  • In Czech Republic
  • List of Countries
  • For 7 days
  • Water Temperature
  • Satellite Maps
  • Weather Map
  • Weather Widgets
  • user-avatar
    Login

    Hourly Weather Wayne

    Today, 19 July, Friday

    Time Temperature Precipitation Wind Pressure Humidity
    00:00 +23°C° 0 mm 1 mps 750 mmHg 85%
    01:00 +23°C° 0 mm 1 mps 751 mmHg 84%
    02:00 +22°C° 0 mm 1 mps 750 mmHg 84%
    03:00 +22°C° 0 mm 1 mps 750 mmHg 85%
    04:00 +22°C° 0 mm 1 mps 750 mmHg 86%
    05:00 +23°C° 0 mm 1 mps 750 mmHg 84%
    06:00 +24°C° 0 mm 1 mps 751 mmHg 82%
    07:00 +26°C° 0 mm 1 mps 751 mmHg 87%
    08:00 +28°C° 0 mm 1 mps 751 mmHg 79%
    09:00 +29°C° 0 mm 2 mps 751 mmHg 72%
    10:00 +31°C° 0 mm 2 mps 751 mmHg 64%
    11:00 +34°C° 0 mm 3 mps 750 mmHg 59%
    12:00 +35°C° 0 mm 3 mps 750 mmHg 54%
    13:00 +37°C° 0 mm 3 mps 750 mmHg 49%
    14:00 +37°C° 0 mm 4 mps 749 mmHg 49%
    15:00 +37°C° 0 mm 4 mps 749 mmHg 49%
    16:00 +37°C° 0 mm 4 mps 749 mmHg 49%
    17:00 +36°C° 0 mm 4 mps 749 mmHg 55%
    18:00 +35°C° 0 mm 4 mps 749 mmHg 61%
    19:00 +34°C° 0 mm 3 mps 749 mmHg 67%
    20:00 +33°C° 0 mm 3 mps 749 mmHg 69%
    21:00 +31°C° 0 mm 3 mps 749 mmHg 72%
    22:00 +31°C° 0 mm 3 mps 749 mmHg 74%
    23:00 +30°C° 0 mm 3 mps 749 mmHg 75%

    Tomorrow, 20 July, Saturday

    Time Temperature Precipitation Wind Pressure Humidity
    00:00 +30°C° 0 mm 3 mps 749 mmHg 77%
    01:00 +29°C° 0 mm 3 mps 749 mmHg 78%
    02:00 +29°C° 0 mm 2 mps 749 mmHg 79%
    03:00 +28°C° 0 mm 2 mps 749 mmHg 80%
    04:00 +28°C° 0 mm 1 mps 749 mmHg 81%
    05:00 +29°C° 0 mm 2 mps 749 mmHg 78%
    06:00 +30°C° 0 mm 2 mps 749 mmHg 74%
    07:00 +30°C° 0 mm 2 mps 750 mmHg 70%
    08:00 +32°C° 0 mm 2 mps 750 mmHg 63%
    09:00 +35°C° 0 mm 2 mps 750 mmHg 56%
    10:00 +37°C° 0 mm 2 mps 750 mmHg 49%
    11:00 +38°C° 0 mm 3 mps 749 mmHg 46%
    12:00 +39°C° 0 mm 3 mps 749 mmHg 42%
    13:00 +40°C° 0 mm 3 mps 749 mmHg 39%
    14:00 +40°C° 0 mm 4 mps 749 mmHg 40%
    15:00 +40°C° 0 mm 4 mps 748 mmHg 41%
    16:00 +39°C° 0 mm 5 mps 748 mmHg 43%
    17:00 +37°C° 0 mm 5 mps 748 mmHg 49%
    18:00 +36°C° 0 mm 4 mps 748 mmHg 56%
    19:00 +34°C° 0 mm 4 mps 749 mmHg 63%
    20:00 +34°C° 0 mm 3 mps 749 mmHg 65%
    21:00 +33°C° 0 mm 3 mps 749 mmHg 67%
    22:00 +31°C° 0 mm 3 mps 749 mmHg 70%
    23:00 +31°C° 0.1 mm 3 mps 749 mmHg 72%

    Day after tomorrow, 21 July, Sunday

    Time Temperature Precipitation Wind Pressure Humidity
    00:00 +30°C° 0.1 mm 2 mps 749 mmHg 75%
    01:00 +30°C° 0.1 mm 2 mps 749 mmHg 78%
    02:00 +30°C° 0.1 mm 2 mps 749 mmHg 79%
    03:00 +29°C° 0.1 mm 2 mps 748 mmHg 80%
    04:00 +29°C° 0.1 mm 2 mps 748 mmHg 81%
    05:00 +30°C° 0 mm 2 mps 749 mmHg 79%
    06:00 +31°C° 0 mm 2 mps 749 mmHg 76%
    07:00 +31°C° 0 mm 2 mps 749 mmHg 74%
    08:00 +34°C° 0 mm 2 mps 749 mmHg 68%
    09:00 +35°C° 0 mm 3 mps 749 mmHg 61%
    10:00 +37°C° 0 mm 3 mps 749 mmHg 55%
    11:00 +38°C° 0 mm 3 mps 749 mmHg 51%
    12:00 +39°C° 0 mm 3 mps 749 mmHg 47%
    13:00 +40°C° 0 mm 3 mps 748 mmHg 43%
    14:00 +40°C° 0.1 mm 4 mps 748 mmHg 45%
    15:00 +40°C° 0.1 mm 4 mps 748 mmHg 46%
    16:00 +38°C° 0.1 mm 4 mps 748 mmHg 48%
    17:00 +37°C° 0.1 mm 4 mps 748 mmHg 52%
    18:00 +35°C° 0.1 mm 4 mps 748 mmHg 57%
    19:00 +34°C° 0.1 mm 3 mps 748 mmHg 62%
    20:00 +33°C° 0.1 mm 3 mps 749 mmHg 64%
    21:00 +31°C° 0.1 mm 3 mps 749 mmHg 66%
    22:00 +30°C° 0.1 mm 2 mps 749 mmHg 69%
    23:00 +29°C° 0.8 mm 2 mps 749 mmHg 69%

    22 July, Monday

    Time Temperature Precipitation Wind Pressure Humidity
    00:00 +28°C° 0.8 mm 2 mps 749 mmHg 70%
    01:00 +27°C° 0.8 mm 2 mps 749 mmHg 71%
    02:00 +27°C° 0.2 mm 2 mps 749 mmHg 70%
    03:00 +26°C° 0.2 mm 2 mps 749 mmHg 68%
    04:00 +26°C° 0.2 mm 2 mps 749 mmHg 67%
    05:00 +26°C° 0 mm 2 mps 749 mmHg 64%
    06:00 +27°C° 0 mm 2 mps 750 mmHg 61%
    07:00 +27°C° 0 mm 2 mps 750 mmHg 59%
    08:00 +29°C° 0.1 mm 2 mps 750 mmHg 55%
    09:00 +30°C° 0.1 mm 2 mps 750 mmHg 51%
    10:00 +32°C° 0.1 mm 2 mps 749 mmHg 47%
    11:00 +32°C° 0.1 mm 2 mps 749 mmHg 47%
    12:00 +34°C° 0.1 mm 2 mps 749 mmHg 47%
    13:00 +34°C° 0.1 mm 2 mps 748 mmHg 48%
    14:00 +32°C° 0.3 mm 2 mps 748 mmHg 52%
    15:00 +31°C° 0.3 mm 3 mps 747 mmHg 57%
    16:00 +31°C° 0.3 mm 3 mps 747 mmHg 61%
    17:00 +29°C° 1.4 mm 2 mps 747 mmHg 70%
    18:00 +28°C° 1.4 mm 2 mps 746 mmHg 78%
    19:00 +26°C° 1.4 mm 1 mps 746 mmHg 86%
    20:00 +26°C° 0.9 mm 2 mps 746 mmHg 86%
    21:00 +26°C° 0.9 mm 2 mps 746 mmHg 86%
    22:00 +26°C° 0.9 mm 3 mps 746 mmHg 86%
    23:00 +26°C° 1.7 mm 3 mps 745 mmHg 86%

    23 July, Tuesday

    Time Temperature Precipitation Wind Pressure Humidity
    00:00 +26°C° 1.7 mm 2 mps 745 mmHg 85%
    01:00 +26°C° 1.7 mm 2 mps 744 mmHg 84%
    02:00 +26°C° 0.2 mm 3 mps 744 mmHg 85%
    03:00 +26°C° 0.2 mm 3 mps 744 mmHg 86%
    04:00 +26°C° 0.2 mm 3 mps 744 mmHg 87%
    05:00 +26°C° 0.2 mm 4 mps 745 mmHg 86%
    06:00 +26°C° 0.2 mm 4 mps 745 mmHg 85%
    07:00 +25°C° 0.2 mm 4 mps 745 mmHg 84%
    08:00 +23°C° 1.4 mm 4 mps 746 mmHg 84%
    09:00 +22°C° 1.4 mm 4 mps 746 mmHg 84%
    10:00 +20°C° 1.4 mm 3 mps 746 mmHg 85%
    11:00 +22°C° 0.2 mm 4 mps 747 mmHg 77%
    12:00 +23°C° 0.2 mm 4 mps 747 mmHg 70%
    13:00 +25°C° 0.2 mm 4 mps 748 mmHg 62%
    14:00 +26°C° 0 mm 4 mps 748 mmHg 57%
    15:00 +27°C° 0 mm 3 mps 748 mmHg 51%
    16:00 +28°C° 0 mm 3 mps 748 mmHg 46%
    17:00 +27°C° 0 mm 3 mps 749 mmHg 51%
    18:00 +26°C° 0 mm 3 mps 749 mmHg 56%
    19:00 +25°C° 0 mm 2 mps 750 mmHg 60%
    20:00 +25°C° 0 mm 2 mps 750 mmHg 63%
    21:00 +24°C° 0 mm 2 mps 751 mmHg 65%
    22:00 +23°C° 0 mm 2 mps 751 mmHg 67%
    23:00 +21°C° 0 mm 2 mps 751 mmHg 67%

    24 July, Wednesday

    Time Temperature Precipitation Wind Pressure Humidity
    00:00 +21°C° 0 mm 2 mps 752 mmHg 67%
    01:00 +20°C° 0 mm 2 mps 752 mmHg 66%
    02:00 +20°C° 0 mm 2 mps 752 mmHg 67%
    03:00 +19°C° 0 mm 2 mps 752 mmHg 69%
    04:00 +19°C° 0 mm 2 mps 752 mmHg 70%
    05:00 +19°C° 0 mm 2 mps 753 mmHg 66%
    06:00 +20°C° 0 mm 2 mps 753 mmHg 63%
    07:00 +21°C° 0 mm 2 mps 753 mmHg 60%
    08:00 +23°C° 0 mm 2 mps 754 mmHg 55%
    09:00 +25°C° 0 mm 2 mps 754 mmHg 50%
    10:00 +26°C° 0 mm 2 mps 754 mmHg 46%
    11:00 +27°C° 0 mm 2 mps 754 mmHg 43%
    12:00 +28°C° 0 mm 2 mps 754 mmHg 40%
    13:00 +29°C° 0 mm 2 mps 754 mmHg 37%
    14:00 +29°C° 0 mm 2 mps 754 mmHg 36%
    15:00 +29°C° 0 mm 2 mps 754 mmHg 36%
    16:00 +29°C° 0 mm 2 mps 754 mmHg 35%
    17:00 +28°C° 0 mm 2 mps 754 mmHg 40%
    18:00 +27°C° 0 mm 2 mps 754 mmHg 46%
    19:00 +25°C° 0 mm 2 mps 754 mmHg 51%
    20:00 +24°C° 0 mm 1 mps 754 mmHg 52%
    21:00 +24°C° 0 mm 1 mps 755 mmHg 52%
    22:00 +23°C° 0 mm 1 mps 755 mmHg 53%
    23:00 +22°C° 0 mm 1 mps 755 mmHg 54%
    Show more